sat.trackr.live / text

‹ back to catalog

2025-108D

NORAD 64090 · 2025-108D

PAYLOAD ACTIVE UNKNOWN

§ Identity

Operator
Country
PRC
Launch date
2025-05-21
Launch site
JSC
Launch vehicle
Mass (kg)
RCS (m²)

External: N2YO · Heavens-Above · Gunter

§ Orbital elements

Epoch: 2026-09-21T22:30:41.918688Z

Period
94.76 min
Inclination
97.4615°
Eccentricity
0.0012572
Mean motion
15.19633280 rev/d
Perigee alt
498.3 km
Apogee alt
515.6 km
Semi-major
6,885.1 km
B*
1.5108e-4
RAAN
339.4516°
Arg perigee
34.1872°
Mean anomaly
326.0170°
Rev number
7,405

§ Raw data

2025-108D1 64090U 25108D   26264.93798517  .00003156  00000+0  15108-3 0  99962 64090  97.4615 339.4516 0012572  34.1872 326.0170 15.19633280 74059

JSON: /api/v1/satellites/64090 · /tle

For live sub-satellite position, see the globe view (requires WebGL).

§ Visibility from observer

Set your observer location to see the next 7 days of passes ≥ 10°. The values pass through the URL so the page stays shareable.

No JS? Fill the form by hand. The geolocation button needs JavaScript.